This is the latest recevied weather packets stored in our database for station/object IK1QAD-3. If no packets are shown the sender has not sent any weather packets the latest 10 day(s).
| Time | Temp. | Humidity | Pressure | Rain* | Wind** | Luminosity | Snow |
|---|---|---|---|---|---|---|---|
| 1777928322 | 15.56° C | 86% | 1016.5 hPa | 0 mm | - | - | - |
| 1777928017 | 15.56° C | 85% | 1016.5 hPa | 0 mm | - | - | - |
| 1777927717 | 15.56° C | 85% | 1016.4 hPa | 0 mm | - | - | - |
| 1777927415 | 15.56° C | 84% | 1016.5 hPa | 0 mm | - | - | - |
| 1777927110 | 15.56° C | 84% | 1016.4 hPa | 0 mm | - | - | - |
| 1777926810 | 15.56° C | 84% | 1016.4 hPa | 0 mm | - | - | - |
| 1777926524 | 15.56° C | 84% | 1016.4 hPa | 0 mm | - | - | - |
| 1777926219 | 15.56° C | 84% | 1016.4 hPa | 0 mm | - | - | - |
| 1777925916 | 15.56° C | 84% | 1016.4 hPa | 0 mm | - | - | - |
| 1777925607 | 15.56° C | 84% | 1016.5 hPa | 0 mm | - | - | - |
| 1777925308 | 15.56° C | 84% | 1016.6 hPa | 0 mm | - | - | - |
| 1777925020 | 15° C | 85% | 1016.6 hPa | 0 mm | - | - | - |
| 1777924718 | 15° C | 86% | 1016.6 hPa | 0 mm | - | - | - |
| 1777924414 | 15° C | 88% | 1016.8 hPa | 0 mm | - | - | - |
| 1777924112 | 15° C | 88% | 1016.8 hPa | 0 mm | - | - | - |
| 1777923807 | 15° C | 87% | 1017 hPa | 0 mm | - | - | - |
| 1777923523 | 15° C | 87% | 1016.9 hPa | 0 mm | - | - | - |
| 1777923221 | 15° C | 86% | 1016.9 hPa | 0 mm | - | - | - |
| 1777922917 | 15° C | 86% | 1016.8 hPa | 0 mm | - | - | - |
| 1777922612 | 15° C | 86% | 1016.8 hPa | 0 mm | - | - | - |
| 1777922310 | 15° C | 86% | 1016.6 hPa | 0 mm | - | - | - |
| 1777922006 | 15° C | 86% | 1016.6 hPa | 0 mm | - | - | - |
| 1777921723 | 15.56° C | 84% | 1016.6 hPa | 0 mm | - | - | - |
| 1777921421 | 15.56° C | 83% | 1016.5 hPa | 0 mm | - | - | - |
| 1777921115 | 16.11° C | 80% | 1016.3 hPa | 0 mm | - | - | - |
* Rain latest hour (hover to see other rain measurements)
** Current wind speed in m/s (hover to see current wind gust speed)